Wind_Speed
31 31 30 32 34 35 34 34 35 33 32 32 29 28 27 26 25 25 27 26 24 25 22 22 26 30 32 31 29 29 28 29 16 14 17 19 18 17 15 17 13 13 15
31 31 32 32 33 35 38 38 37 36 34 31 29 29 29 29 28 28 28 26 25 23 29 30 31 33 31 32 32 30 28 30 21 17 21 17 18 18 17 13 12 14 16
31 32 31 33 35 39 39 38 36 36 35 32 32 32 32 31 29 29 29 28 28 33 25 29 31 31 31 31 28 27 24 24 22 10 12 16 17 12 12 12 13 16 15
30 32 33 34 34 33 31 29 30 30 30 30 30 30 30 30 30 28 27 26 26 27 29 29 30 30 30 29 26 21 22 21 21 15 10 9 11 10 9 10 15 15 14
30 32 33 31 30 30 29 27 26 25 27 26 26 26 25 25 26 26 26 26 25 25 26 26 26 24 24 21 21 21 20 19 17 14 9 7 8 7 11 11 13 15 16
32 32 29 29 29 28 26 24 25 25 25 24 22 22 22 23 25 29 30 29 30 28 21 18 15 14 14 15 16 18 19 17 16 11 9 6 9 11 11 12 13 14 13
31 29 28 27 27 27 24 23 23 21 20 20 20 20 20 22 26 26 26 26 21 18 17 15 14 15 16 15 13 13 11 10 9 8 6 8 10 9 10 11 14 14 15
26 26 26 25 24 23 23 23 17 13 14 19 19 17 16 15 14 12 17 16 14 14 16 18 18 17 15 15 13 10 8 5 4 7 8 6 7 8 9 11 14 16 18
25 24 23 22 21 18 17 15 14 15 14 11 8 9 8 9 10 11 12 16 17 18 18 17 15 15 13 11 9 9 6 5 5 7 9 10 12 12 13 9 12 14 16
24 22 18 18 18 17 17 16 14 14 14 13 12 11 13 16 10 10 13 21 24 23 18 16 13 12 8 7 6 6 6 5 4 4 5 6 7 8 12 10 13 14 15
17 20 19 20 21 21 19 19 19 20 21 21 22 20 19 17 15 16 19 22 23 21 16 12 10 6 5 4 5 3 3 3 3 4 6 8 8 8 9 10 11 14 16
17 22 23 23 23 23 24 23 22 25 27 27 29 26 23 21 19 17 17 19 18 17 14 11 9 8 6 6 3 3 2 1 3 6 7 9 9 10 11 13 15 17 18
26 23 26 27 24 22 26 26 26 26 26 22 22 22 21 22 23 20 19 17 15 15 11 9 7 7 6 3 2 1 3 4 6 7 9 10 10 12 14 16 16 17 19
28 24 24 26 25 24 22 21 21 20 20 19 19 19 18 16 16 16 15 13 12 13 11 9 7 5 3 2 1 3 4 5 6 8 10 12 14 15 16 17 18 19 20
28 25 23 26 27 28 27 23 22 17 19 21 20 22 19 15 11 12 11 9 8 9 8 6 3 0 2 4 5 5 6 8 10 11 12 14 16 17 17 17 19 20 21
25 22 22 24 26 26 29 37 34 28 25 25 21 23 22 21 18 17 16 14 12 9 5 3 3 3 5 7 8 9 9 9 11 12 15 16 17 18 19 19 20 20 21
25 23 23 24 22 25 23 25 31 33 32 29 26 24 23 20 17 15 13 11 10 6 6 6 6 7 8 9 10 11 12 12 13 15 16 18 18 19 20 21 20 21 21
34 28 26 26 24 23 22 23 23 22 22 24 24 23 21 18 16 14 9 5 7 10 9 8 8 9 10 10 11 13 14 15 16 17 18 19 19 20 21 21 20 20 20
30 29 28 27 25 24 22 22 21 20 19 18 15 14 14 15 16 16 13 10 9 8 9 9 9 10 11 12 13 15 16 17 18 18 18 20 20 20 21 20 20 20 20
31 31 26 23 20 20 20 19 19 18 16 14 13 11 8 8 11 12 12 10 9 8 8 8 9 10 11 13 14 15 17 17 18 18 19 19 19 19 20 20 20 21 20
28 27 24 21 20 20 19 18 17 16 15 14 13 12 12 9 9 9 8 8 7 7 7 8 9 10 12 13 14 15 16 17 17 17 18 18 18 19 19 19 20 20 20
23 21 20 19 19 19 18 17 16 15 13 11 9 10 11 9 7 6 5 6 6 6 7 9 10 11 12 13 14 14 15 16 16 16 17 17 17 18 18 19 19 19 19
20 20 20 19 19 18 17 16 14 13 11 9 8 7 7 6 5 5 5 6 7 8 9 10 11 11 11 12 13 14 15 15 15 16 16 17 18 18 19 20 20 20 20
20 19 18 17 16 16 15 14 13 12 10 9 7 6 5 5 4 5 6 7 8 9 9 10 11 12 13 14 13 14 14 15 15 16 17 18 20 20 20 21 21 21 21
19 19 18 16 15 14 13 12 11 10 8 7 5 5 5 5 6 7 8 8 9 10 11 12 11 13 14 16 17 16 16 16 16 17 18 19 21 22 22 22 21 21 21
18 17 16 14 14 12 11 10 8 7 6 6 5 6 6 7 7 8 9 9 11 13 12 13 14 15 16 15 14 14 17 19 20 19 19 19 21 21 20 20 21 21 21
Wind_Direction
198 200 201 201 202 204 206 209 211 215 217 219 221 225 229 233 235 236 238 240 241 242 237 240 251 245 245 243 242 242 236 226 220 214 212 203 201 203 210 230 238 246 253
197 198 201 203 205 207 210 211 211 215 217 222 228 234 236 237 239 239 242 242 239 235 252 255 256 251 244 242 243 238 236 232 213 195 196 203 201 210 222 221 231 250 258
197 198 201 204 207 210 213 214 215 217 219 224 228 231 234 237 239 241 243 243 242 250 249 255 258 250 245 241 239 239 235 214 204 174 184 211 220 218 224 232 244 256 254
198 200 202 205 210 213 216 219 218 222 225 226 229 234 240 244 246 247 245 244 244 250 254 254 253 250 255 249 243 226 214 203 203 198 191 197 219 221 238 255 259 256 262
202 203 206 207 210 212 214 214 213 216 221 228 231 235 242 244 245 244 243 239 246 247 246 246 248 256 252 247 235 205 203 194 181 176 170 192 215 229 230 252 258 267 267
204 210 209 209 211 213 215 213 211 214 219 223 226 237 243 246 247 249 250 257 249 238 234 232 232 226 216 200 198 202 197 181 182 177 175 196 228 234 245 254 265 268 273
201 205 208 211 215 216 214 214 217 218 220 227 239 244 243 243 257 259 255 236 227 220 210 193 173 161 168 163 162 156 144 152 172 192 197 217 249 252 255 258 261 265 269
200 203 202 204 211 213 215 219 215 212 220 231 238 239 240 244 251 228 219 207 189 176 173 164 157 146 144 147 144 140 141 157 190 214 221 228 251 258 259 261 268 273 273
197 200 198 199 201 197 191 180 194 214 205 202 200 198 198 164 181 193 191 161 148 141 142 142 144 139 136 131 145 144 153 181 208 223 232 243 253 260 258 267 264 267 271
193 186 179 177 173 177 191 192 178 169 152 150 133 132 141 137 160 176 169 149 138 131 126 125 125 130 131 145 153 148 164 185 207 235 264 284 287 276 281 255 272 273 280
164 158 156 159 167 174 168 160 156 147 138 130 124 120 120 126 134 147 146 143 138 130 121 113 115 114 119 131 127 145 179 181 243 264 269 269 269 267 266 267 267 268 271
130 131 136 143 146 151 148 143 142 139 126 117 116 108 110 111 116 123 127 128 130 126 117 115 120 127 127 122 110 170 179 225 287 285 282 279 276 276 279 280 277 274 270
114 105 112 120 126 133 133 132 128 131 124 120 115 110 105 112 110 115 113 114 114 106 107 118 123 142 132 127 174 0 9 312 303 296 290 286 286 290 291 290 286 284 283
100 97 98 98 99 105 107 113 117 121 121 121 117 112 109 104 105 108 106 102 92 92 94 106 136 154 174 169 288 330 313 307 303 297 296 296 297 295 293 294 293 294 295
95 93 89 92 92 88 87 94 101 109 127 122 117 119 115 106 104 115 107 101 99 109 107 111 110 95 295 298 298 297 303 304 307 307 307 306 303 300 298 298 295 295 293
95 93 96 96 92 94 91 84 84 94 102 106 110 113 104 104 99 95 94 95 92 93 87 67 48 0 333 326 321 319 316 316 317 316 311 308 305 303 301 300 296 292 294
100 103 99 98 100 98 96 94 95 81 85 87 89 93 97 100 91 90 93 84 69 58 42 30 23 4 343 334 330 324 319 318 316 310 310 307 306 304 302 299 298 296 296
100 97 91 90 94 97 101 103 101 101 101 91 88 91 89 85 78 73 73 70 49 43 37 21 7 351 338 334 329 325 320 316 312 310 310 307 305 303 301 298 298 299 300
86 88 90 91 91 92 92 93 98 102 105 106 97 79 75 76 67 58 55 53 41 33 16 3 355 342 333 326 320 315 311 310 310 308 309 308 307 306 302 300 299 298 298
83 86 83 83 83 86 87 90 91 93 92 86 78 67 65 58 51 45 43 41 33 21 4 347 334 326 320 317 314 312 310 310 310 309 308 306 304 302 300 299 300 301 300
83 81 83 82 84 84 84 85 89 92 93 86 74 61 60 62 52 43 37 29 18 3 347 336 328 323 319 317 315 312 309 308 307 307 307 306 306 303 300 298 298 297 298
80 81 82 83 84 84 86 87 88 88 88 88 81 57 57 56 50 39 26 14 2 348 336 327 321 319 316 314 312 310 309 308 308 306 305 304 302 301 301 299 298 297 298
85 86 85 84 86 86 84 83 84 85 85 81 72 61 52 51 41 26 7 350 340 334 329 325 319 314 311 308 306 306 305 304 303 302 301 301 300 299 299 299 298 297 297
85 86 85 84 83 83 83 84 82 80 80 77 72 64 51 35 15 358 346 338 339 334 325 316 310 306 305 309 308 302 296 294 294 293 295 294 293 295 296 296 295 295 295
81 81 80 80 80 81 83 82 81 79 76 71 59 43 22 7 358 351 346 341 331 324 318 317 311 307 308 305 303 298 296 295 292 290 291 288 287 289 289 288 287 290 291
82 83 84 84 81 79 80 80 76 71 63 49 32 18 6 359 352 344 334 329 323 321 320 313 311 309 309 309 306 299 299 301 301 297 289 284 284 285 285 284 285 286 289
Height
737 743 747 751 757 762 766 771 776 782 786 790 794 797 799 801 803 805 807 808 808 809 809 809 811 809 808 809 810 812 811 816 812 814 819 819 821 823 827 828 831 832 831
730 736 741 746 750 754 758 761 767 772 778 782 786 789 792 794 796 797 798 799 799 798 798 801 800 802 802 801 802 802 802 806 808 807 811 814 817 817 821 824 826 826 826
722 728 734 738 741 743 746 753 760 765 769 774 778 781 783 784 786 788 789 789 788 787 789 791 791 793 794 794 795 795 794 800 802 802 805 811 814 815 817 819 820 820 821
715 720 725 728 734 739 745 751 755 760 764 767 770 773 775 777 778 779 780 781 782 780 781 782 785 785 786 787 787 789 791 795 797 799 805 809 812 812 815 816 816 816 815
710 713 715 722 727 733 738 743 748 753 757 762 764 766 768 769 769 770 771 772 772 772 773 775 777 778 781 782 783 785 788 791 792 798 803 808 810 810 811 810 811 811 809
698 703 710 715 720 723 730 735 741 745 750 753 756 758 759 759 760 761 763 763 764 765 766 769 771 775 779 780 781 784 787 788 795 798 801 804 806 808 808 808 808 808 805
686 694 701 707 711 716 722 728 733 738 743 747 748 750 750 751 752 755 756 757 759 760 762 766 770 774 777 778 782 786 789 791 794 798 800 802 804 804 805 804 805 804 802
682 687 692 698 704 709 714 719 726 732 736 739 740 742 744 746 747 749 751 754 756 759 763 767 771 775 778 780 784 787 789 792 794 797 799 800 802 803 803 802 801 799 797
675 680 685 691 697 703 710 715 721 725 729 733 736 738 741 744 746 748 750 754 758 763 767 770 774 777 780 783 786 786 789 791 793 794 795 795 795 795 796 797 796 795 791
670 675 683 689 695 702 706 711 716 722 727 732 736 740 743 746 750 752 753 756 761 766 771 775 779 781 783 785 787 788 791 793 793 794 794 793 792 793 791 792 793 791 789
673 677 681 686 692 699 705 711 716 721 727 733 737 743 747 751 753 756 758 761 766 770 775 779 782 784 787 789 790 790 791 792 791 792 792 792 791 790 790 790 790 789 786
677 678 682 687 693 699 704 712 719 725 729 736 741 747 751 755 758 762 764 767 770 773 777 781 783 785 787 788 790 790 790 790 792 792 791 790 789 788 787 786 786 784 782
679 686 688 691 699 705 708 714 719 727 732 739 744 750 756 760 762 765 769 772 775 777 781 784 786 787 788 790 790 790 791 792 792 791 790 788 787 786 785 783 781 779 777
684 692 697 700 706 711 716 720 725 731 737 742 748 754 759 764 768 771 772 774 778 780 783 786 788 789 790 791 791 791 791 792 792 790 789 787 786 784 782 780 777 775 771
692 700 706 709 714 721 723 727 732 737 740 745 751 756 762 767 772 774 776 779 780 782 784 787 789 791 791 792 792 792 791 791 790 789 787 785 783 781 779 778 775 771 768
700 707 713 718 720 728 732 733 741 744 747 753 759 760 766 770 774 776 778 780 783 784 786 787 788 791 792 792 792 791 791 790 789 788 787 785 782 780 777 775 772 768 763
706 714 720 723 731 732 739 742 742 753 756 762 766 769 773 776 779 780 782 784 786 786 787 789 790 792 792 792 792 792 791 790 789 787 785 783 781 778 776 772 768 764 759
711 720 724 727 733 738 745 748 750 759 765 771 774 776 779 780 782 784 785 786 787 787 790 791 792 793 793 793 793 792 791 790 788 786 784 782 779 776 772 768 764 760 757
720 726 732 738 744 748 752 755 758 765 772 776 780 782 783 784 785 787 787 788 789 790 792 792 794 795 795 794 793 793 791 789 787 785 782 780 777 773 769 766 762 760 757
736 740 744 748 752 754 757 763 766 772 776 781 783 784 786 787 788 789 791 792 793 794 795 796 796 796 795 794 793 791 789 786 784 782 779 777 774 771 767 764 761 758 753
744 747 750 757 760 762 765 769 773 776 780 784 788 790 788 789 792 794 795 796 796 797 797 797 796 795 794 792 791 789 786 784 782 780 777 774 771 768 766 762 758 755 751
754 757 761 766 768 770 773 776 779 781 784 788 792 793 792 793 795 797 798 799 798 798 798 797 795 794 792 791 789 787 784 782 780 777 774 772 769 766 762 759 755 751 747
765 769 772 774 776 778 780 782 784 787 790 792 794 795 796 798 799 800 800 799 798 797 796 795 794 792 791 789 786 784 782 780 777 775 772 769 766 763 760 756 752 748 744
773 775 778 780 782 784 786 789 791 793 794 796 798 799 800 800 800 800 799 798 796 795 794 793 791 789 787 784 782 781 779 776 774 771 769 766 763 759 756 752 749 745 741
779 781 784 787 789 791 793 795 796 797 799 800 801 801 801 800 800 799 797 796 794 793 791 789 787 785 782 779 777 776 774 771 768 765 763 761 758 754 751 748 745 741 738
785 787 789 792 793 796 798 800 801 801 802 802 802 801 801 800 799 798 797 796 794 791 789 787 784 781 777 775 773 772 769 765 761 758 756 754 751 748 745 742 739 737 733